Location: Newark
(54.9144°N, 1.3882°W)
Time: 08:05:27
(UTC+00:00)

Envisat - Visible Passes

Search period start: 12 December 2019 00:00
Search period end: 22 December 2019 00:00
Orbit: 764 x 766 km, 98.1° (Epoch: 11 December)

Date Brightness Start Highest point End Pass type
(mag) Time Alt. Az. Time Alt. Az. Time Alt. Az.
12 Dec 3.9 06:44:25 10° NNE 06:49:25 52° E 06:54:23 10° S visible
12 Dec 3.8 16:28:12 10° ESE 16:32:27 28° ENE 16:36:44 10° N visible
12 Dec 3.5 18:06:09 10° S 18:11:11 63° WSW 18:16:16 10° NNW visible
12 Dec 6.1 19:49:31 10° WSW 19:51:17 12° W 19:53:03 10° WNW visible
13 Dec 5.1 06:07:59 10° NNE 06:12:22 28° E 06:16:44 10° SSE visible
13 Dec 2.9 17:29:19 10° SSE 17:34:23 72° ENE 17:39:28 10° NNW visible
13 Dec 5.4 19:10:02 10° SW 19:13:56 22° W 19:17:53 10° NW visible
14 Dec 6.0 05:32:08 10° NE 05:35:07 15° E 05:38:06 10° ESE visible
14 Dec 3.2 07:09:52 10° NNE 07:14:59 81° ESE 07:20:05 10° SSW visible
14 Dec 3.4 16:53:01 10° SE 16:57:44 40° ENE 17:02:29 10° N visible
14 Dec 4.3 18:32:02 10° SSW 18:36:49 40° W 18:41:37 10° NNW visible
15 Dec 4.3 06:33:12 10° NNE 06:38:05 43° E 06:42:55 10° S visible
15 Dec 4.0 16:17:17 10° ESE 16:21:17 24° NE 16:25:18 10° N visible
15 Dec 3.2 17:54:47 10° S 17:59:52 75° WSW 18:05:00 10° NNW visible
15 Dec 5.9 19:37:07 10° WSW 19:39:49 14° W 19:42:31 10° NW visible
16 Dec 5.4 05:56:52 10° NE 06:00:58 24° E 06:05:02 10° SE visible
16 Dec 3.0 07:35:24 10° NNE 07:40:28 67° WNW 07:45:31 10° SSW visible
16 Dec 3.0 17:18:07 10° SSE 17:23:07 60° ENE 17:28:09 10° N visible
16 Dec 5.1 18:58:18 10° SSW 19:02:32 26° W 19:06:49 10° NW visible
17 Dec 6.1 05:21:26 10° NE 05:23:39 13° E 05:25:52 10° ESE visible
17 Dec 3.4 06:58:35 10° NNE 07:03:41 68° ESE 07:08:45 10° S visible
17 Dec 3.6 16:42:00 10° SE 16:46:32 34° ENE 16:51:06 10° N visible
17 Dec 4.0 18:20:33 10° S 18:25:28 48° W 18:30:25 10° NNW visible
18 Dec 4.7 06:22:00 10° NNE 06:26:43 36° E 06:31:23 10° SSE visible
18 Dec 3.0 17:43:29 10° SSE 17:48:35 89° W 17:53:42 10° NNW visible
18 Dec 5.7 19:25:03 10° SW 19:28:21 17° W 19:31:41 10° NW visible
19 Dec 5.7 05:45:50 10° NE 05:49:33 20° E 05:53:14 10° SE visible
19 Dec 3.0 07:24:05 10° NNE 07:29:12 80° WNW 07:34:18 10° SSW visible
19 Dec 3.1 17:06:58 10° SE 17:11:52 51° ENE 17:16:48 10° N visible
19 Dec 4.8 18:46:38 10° SSW 18:51:08 31° W 18:55:41 10° NNW visible
20 Dec 6.3 05:11:29 10° ENE 05:12:11 10° E 05:12:52 10° E visible
20 Dec 3.8 06:47:20 10° NNE 06:52:22 56° E 06:57:22 10° S visible
20 Dec 3.8 16:31:00 10° ESE 16:35:21 29° ENE 16:39:43 10° N visible
20 Dec 3.6 18:09:07 10° S 18:14:07 58° W 18:19:10 10° NNW visible
20 Dec 6.2 19:53:06 10° W 19:54:17 11° W 19:55:28 10° WNW visible
21 Dec 5.0 06:10:51 10° NNE 06:15:20 30° E 06:19:48 10° SSE visible
21 Dec 2.9 17:32:13 10° SSE 17:37:18 77° ENE 17:42:24 10° NNW visible
21 Dec 5.5 19:13:09 10° SW 19:16:55 21° W 19:20:43 10° NW visible
